Погода в Польном Ялтунове

Россия / Рязанская область     53°59′09″N   41°51′45″E
темп.,
°C
ветер,
м/с
пор.,
м/с
влажн.,
%
обл.,
%
осадки,
мм/ч
давл.,
гПа
погр.,
м
15 мая, сб
сб1500:00+16юв4119368 0.0 1012200
03:00+16юв39925 0.0 1012161
06:00+16ююв389277 0.0 1012231
09:00+21ю697848 0.0 1012512
12:00+22з5882100 0.9 1011562
15:00+19юв488198 2.3 1013316
18:00+21ю488398 1.0 1013641
21:00+17ююз33885 1.9 101430
16 мая, вс
вс1600:00+15зюз33899 0.0 101440
03:00+14юз228762 0.0 101520
06:00+15ююз2285100 0.0 101554
09:00+20ю236978 0.0 1016410
12:00+23ююз235497 0.0 10161222
15:00+24ю23505 0.0 10151546
18:00+23вюв116579 0.0 101586
21:00+17вюв338155 2.1 101527
17 мая, пн
пн1700:00+16в2285100 1.4 101514
03:00+15всв229299 1.5 101627
06:00+16в358787 0.0 1015114
09:00+21юв46685 0.0 1015397
12:00+26ююв57465 0.0 1014938
15:00+26ююв57565 0.0 10141174
18:00+23юв49695 0.0 1013257
21:00+18вюв410835 0.0 1013165
18 мая, вт
вт1800:00+16юв4147646 0.0 1013239
03:00+15юв41466100 0.0 1012240
06:00+16юв514695 0.0 1012263
09:00+21ююв5126086 0.0 1011466
12:00+25ююв6115081 0.0 10111120
15:00+26ююв6105064 0.0 10101278
18:00+23ююв3867100 0.0 1010193
21:00+19ююв337599 0.0 101034
19 мая, ср
ср1900:00+17ююз237886 0.0 101027
03:00+16ссз228893 0.0 100921
06:00+17ю51287100 0.3 1011634
09:00+19ююв5876100 0.6 1010469
12:00+23ю712610 0.3 10101749
15:00+22ююз7116841 0.6 10111682
18:00+19юз61274100 0.1 1011523
21:00+16юз378698 0.1 1013162